Hourly Data Report for March 13, 2020

All times are specified in Local Standard Time (LST). Add 1 hour to adjust for Daylight Saving Time where and when it is observed.

OTTAWA INTL A
ONTARIO
Current Station Operator: NAVCAN

45°19'00.000" N
75°40'00.000" W
114.90 m
6106001
71628
YOW

Download Data

Hourly Data (March 2020)
Hourly Data Report for March 13, 2020
TIME Temp Definition
°C
Dew Point Definition
°C
Rel Hum Definition
%
Wind Dir Definition
10's deg

Wind Spd Definition
km/h
Visibility Definition
km
Stn Press Definition
kPa
Hmdx Definition


Wind Chill Definition


Weather Definition


00:00 -0.1 -4.1 75 8 29 24.1 99.85   -6 LegendNANA
01:00 0.1 -3.6 76 8 28 24.1 99.65     Cloudy
02:00 0.6 -2.9 78 8 26 24.1 99.50     LegendNANA
03:00 0.7 -2.5 79 8 28 24.1 99.34     LegendNANA
04:00 0.6 -1.7 84 8 26 12.9 99.15     Rain
05:00 1.2 -0.6 88 8 27 16.1 98.91     Rain
06:00 1.3 0.1 92 8 24 9.7 98.69     Rain,Fog
07:00 2.3 1.7 96 10 23 6.4 98.46     Rain,Fog
08:00 3.5 3.2 97 13 13 4.0 98.32     Rain,Fog
09:00 6.4 6.0 97 18 21 8.1 98.25     Rain,Fog
10:00 6.8 6.3 96 22 27 24.1 98.31     Mostly Cloudy
11:00 6.8 3.1 77 25 50 24.1 98.52     LegendNANA
12:00 6.3 -0.2 63 24 38 24.1 98.76     LegendNANA
13:00 6.4 -1.7 56 25 37 24.1 98.94     Mostly Cloudy
14:00 6.3 -2.8 52 24 48 24.1 99.03     LegendNANA
15:00 4.8 -2.4 60 24 41 24.1 99.19     LegendNANA
16:00 4.2 -2.8 60 24 36 24.1 99.31     Mostly Cloudy
17:00 3.9 -3.7 58 24 40 24.1 99.44     LegendNANA
18:00 3.5 -4.0 58 24 37 24.1 99.49     LegendNANA
19:00 3.1 -3.7 61 24 31 24.1 99.63     Cloudy
20:00 3.0 -3.9 61 24 34 24.1 99.72     LegendNANA
21:00 2.8 -4.0 61 25 30 24.1 99.78     LegendNANA
22:00 2.6 -4.6 59 25 34 24.1 99.86     Cloudy
23:00 2.3 -4.7 60 25 31 24.1 99.91     LegendNANA

Notes on Data Quality.

Legend

  • E = Estimated
  • M = Missing
  • NA = Not Available*
  • [empty] = Indicates an unobserved value
Date modified: